Location: Elstree
(51.6403°N, 0.2969°W)
Time: 18:18:13
(UTC+00:00)

Cosmos 1703 Rocket - Pass Details

Date: 03 March 2021
Orbit: 604 x 634 km, 82.5° (Epoch: 16 April)

Event Time Altitude Azimuth Distance (km) Brightness Sun altitude
Rises 18:46:01 0° 353° (N) 2,919 7.1 -10.2°
Reaches altitude 10° 18:48:21 10° 0° (N) 2,002 6.2 -10.6°
Maximum altitude 18:52:37 45° 73° (ENE) 854 3.9 -11.2°
Drops below altitude 10° 18:56:48 10° 147° (SSE) 1,969 5.8 -11.9°
Sets 18:59:05 0° 154° (SSE) 2,865 6.7 -12.2°
